This is the latest recevied weather packets stored in our database for station/object N0KWA. If no packets are shown the sender has not sent any weather packets the latest 10 day(s).
| Time | Temp. | Humidity | Pressure | Rain* | Wind** | Luminosity | Snow |
|---|---|---|---|---|---|---|---|
| 1777932015 | 24.44° C | 52% | 1016.8 hPa | 0 mm | - | 9 W/m² | - |
| 1777931711 | 23.89° C | 51% | 1016.7 hPa | 0 mm | - | 9 W/m² | - |
| 1777931409 | 24.44° C | 53% | 1016.7 hPa | 0 mm | - | 10 W/m² | - |
| 1777931105 | 24.44° C | 52% | 1016.8 hPa | 0 mm | - | 10 W/m² | - |
| 1777930801 | 24.44° C | 52% | 1016.6 hPa | 0 mm | - | 10 W/m² | - |
| 1777930497 | 24.44° C | 52% | 1016.8 hPa | 0 mm | - | 12 W/m² | - |
| 1777930195 | 24.44° C | 50% | 1016.9 hPa | 0 mm | - | 14 W/m² | - |
| 1777929890 | 24.44° C | 50% | 1016.8 hPa | 0 mm | - | 17 W/m² | - |
| 1777929588 | 24.44° C | 53% | 1017 hPa | 0 mm | - | 15 W/m² | - |
| 1777929284 | 24.44° C | 51% | 1016.9 hPa | 0 mm | - | 23 W/m² | - |
| 1777928982 | 25° C | 50% | 1017 hPa | 0 mm | - | 15 W/m² | - |
| 1777928679 | 25° C | 50% | 1016.8 hPa | 0 mm | - | 35 W/m² | - |
| 1777928376 | 25° C | 48% | 1016.6 hPa | 0 mm | - | 143 W/m² | - |
| 1777928073 | 25° C | 48% | 1017 hPa | 0 mm | - | 64 W/m² | - |
| 1777927772 | 25° C | 45% | 1017 hPa | 0 mm | - | 19 W/m² | - |
| 1777927469 | 25° C | 46% | 1017 hPa | 0 mm | - | 21 W/m² | - |
| 1777927168 | 25° C | 47% | 1017 hPa | 0 mm | - | 71 W/m² | - |
| 1777926866 | 25.56° C | 48% | 1017.2 hPa | 0 mm | - | 95 W/m² | - |
| 1777926562 | 25.56° C | 44% | 1017.3 hPa | 0 mm | - | 27 W/m² | - |
| 1777926258 | 25.56° C | 45% | 1017.3 hPa | 0 mm | - | 69 W/m² | - |
| 1777925955 | 25.56° C | 45% | 1017.6 hPa | 0 mm | - | 677 W/m² | - |
| 1777925652 | 25.56° C | 47% | 1017.6 hPa | 0 mm | - | 606 W/m² | - |
| 1777925350 | 25.56° C | 46% | 1017.7 hPa | 0 mm | - | 295 W/m² | - |
| 1777925046 | 25.56° C | 48% | 1017.8 hPa | 0 mm | - | 27 W/m² | - |
| 1777924743 | 25.56° C | 43% | 1017.9 hPa | 0 mm | - | 466 W/m² | - |
* Rain latest hour (hover to see other rain measurements)
** Current wind speed in m/s (hover to see current wind gust speed)